Flag for India Weather past 2 weeks in Dharamshala, Himachal Pradesh, India

Now
81 °F

Scattered clouds.


Feels Like: 84 °F
Forecast: 61 / 84 °F
Wind: 5 mph from East

Location: Amritsar Airport


UV Index: 7 (High)

Visibility: 4 mi


Pressure: 29.89 "Hg

Humidity: 70%

Dew point: 70 °F

Location of DharamshalaLocation

Historic Weather in Dharamshala

°F

Dharamshala temperature yesterday

Maximum temperature yesterday: 84 °F (at 4:00 PM)
Minimum temperature yesterday: 57 °F (at 5:00 AM)
Average temperature yesterday: 70 °F

Past Weeks' High & Low Weather Summary

 TemperatureHumidityPressure
High91 °F (Apr 20, 3:30 PM)100% (Apr 8, 3:00 AM)32.43 "Hg (Apr 8, 3:00 AM)
Low54 °F (Apr 8, 3:00 AM)21% (Apr 14, 1:00 PM)29.71 "Hg (Apr 17, 2:30 AM)
Average72 °F66%29.88 "Hg
* Reported Apr 5 6:30 PM — Apr 20 7:00 PM, Dharamshala, Weather by CustomWeather, © 2014

Note: Actual official high and low records may vary slightly from our data, if they occured in-between our weather recording intervals... More about our weather records

Advertising

Historic Weather Conditions — Data for Previous 24 hours

 ConditionsComfort  
Time TempWeatherWind HumidityBarometerVisibility
7:00 PM
Apr 20
81 °FScattered clouds.3 mph66%29.89 "Hg4 mi
6:30 PM82 °FScattered clouds.5 mph48%29.89 "Hg4 mi
6:00 PM84 °FScattered clouds.5 mph45%29.86 "Hg4 mi
5:30 PM84 °FScattered clouds.3 mph43%29.89 "Hg4 mi
5:00 PM88 °FScattered clouds.5 mph33%29.89 "Hg4 mi
4:30 PM88 °FScattered clouds.5 mph29%29.92 "Hg4 mi
4:00 PM90 °FScattered clouds.6 mph26%29.89 "Hg4 mi
3:30 PM91 °FScattered clouds.5 mph24%29.92 "Hg4 mi
3:00 PM90 °FScattered clouds.5 mph26%29.92 "Hg4 mi
2:30 PM90 °FScattered clouds.6 mph26%29.92 "Hg4 mi
2:00 PM90 °FScattered clouds.6 mph26%29.95 "Hg4 mi
12:00 PM84 °FClear.No wind40%29.95 "Hg4 mi
11:30 AM84 °FClear.2 mph40%29.98 "Hg4 mi
11:00 AM81 °FClear.3 mph45%29.98 "Hg4 mi
10:00 AM75 °FPassing clouds.3 mph61%29.98 "Hg4 mi
9:30 AM75 °FPassing clouds.3 mph61%29.98 "Hg4 mi
9:00 AM73 °FPassing clouds.3 mph65%29.98 "Hg4 mi
8:00 AM68 °FFog.No wind78%29.92 "Hg3 mi
7:00 AM64 °FFog.No wind88%29.92 "Hg2 mi
6:30 AM63 °FFog.No wind88%29.92 "Hg2 mi
6:00 AM63 °FFog.No wind88%29.92 "Hg2 mi
5:30 AM64 °FPassing clouds.2 mph88%29.92 "Hg2 mi
5:00 AM64 °FFog.2 mph88%29.92 "Hg2 mi
4:30 AM64 °FFog.3 mph88%29.92 "Hg2 mi
4:00 AM66 °FFog.3 mph83%29.92 "Hg2 mi
3:30 AM68 °FFog.No wind83%29.92 "Hg2 mi
3:00 AM68 °FFog.No wind83%29.92 "Hg2 mi
2:30 AM70 °FFog.No wind78%29.95 "Hg2 mi
2:00 AM70 °FFog.No wind78%29.95 "Hg2 mi
1:30 AM70 °FFog.No wind78%29.95 "Hg2 mi
1:00 AM70 °FFog.No wind78%29.95 "Hg2 mi
12:00 AM72 °FFog.No wind73%29.95 "Hg2 mi
11:30 PM
Apr 19
72 °FFog.No wind73%29.95 "Hg2 mi
11:00 PM72 °FHaze.No wind73%29.95 "Hg2 mi
10:30 PM73 °FHaze.No wind65%29.92 "Hg2 mi
10:00 PM75 °FPassing clouds.No wind65%29.92 "Hg2 mi
9:00 PM77 °FPassing clouds.3 mph61%29.92 "Hg2 mi
8:30 PM77 °FPassing clouds.3 mph61%29.92 "Hg2 mi
8:00 PM79 °FHaze.5 mph61%29.92 "Hg3 mi
Weather by CustomWeather, © 2014

See weather overview